Tracking 30995 objects as of 5-Jul-2025
HD Live streaming from Space Station
objects crossing your sky now

THORAD AGENA D DEB

Track THORAD AGENA D DEB now!
10-day predictions


NORAD ID: 4451
Int'l Code: 1969-082EW
Perigee: 695.0 km
Apogee: 744.0 km
Inclination: 70.0 °
Period: 99.0 minutes
Semi major axis: 7090 km
RCS: 0.0152 m2 (small)
Launch date: September 30, 1969
Source: United States (US)
Launch site: AIR FORCE WESTERN TEST RANGE (AFWTR)

Note: This is SATELLITE DEBRIS
Your satellite tracking list
Your tracking list is empty




NASA's NSSDC Master Catalog

Two Line Element Set (TLE):
1 04451U 69082EW  25186.34350960  .00001563  00000-0  38212-3 0  9995
2 04451  70.0328 149.2643 0034581 237.7308 122.0476 14.54069361905258
Source of the keplerian elements: AFSPC